Location: Vihti�l�
(61.3833°N, 23.0667°E)
Time: 04:46:03
(UTC+00:00)

CZ-4C R/B - Pass Details

Date: 29 November 2020
Orbit: 620 x 1382 km, 63.4° (Epoch: 19 January)

Event Time Altitude Azimuth Distance (km) Brightness Sun altitude
Rises 05:12:54 0° 230° (SW) 3,192 4.9 -12.3°
Reaches altitude 10° 05:15:06 10° 228° (SW) 2,355 4.3 -12.1°
Maximum altitude 05:20:31 70° 146° (SE) 963 2.7 -11.5°
Drops below altitude 10° 05:27:11 10° 65° (ENE) 2,883 5.5 -10.8°
Sets 05:30:06 0° 63° (ENE) 3,962 6.3 -10.4°
